Date String (YYYY-MM-DD hh:mm:ss) UTC,Instrument flags,absolute air pressure of the measurement (hPa),sample flow rate (lpm),inlet stack bypass flow (lpm),air temperature of the measurement (°C),ambient temperature measured by the external sensor (°C),aerosol sample conditioner tube jacket temperature (°C),OPC LED temperature (°C),internal box temperature (°C),relative humidity of the measurement (%),span deviation,mass concentration of particles derived from Lorenz-Mie calculation of OPC scattering (μg/m³),mass concentration of particles derived from Lorenz-Mie calculation of OPC scattering (μg/m³),mass concentration of particles derived from Lorenz-Mie calculation of OPC scattering (μg/m³)
DateTimeUTC,F1_M11,P_M11,Q1_M11,Q2_M11,T1_M11,T2_M11,T3_M11,T4_M11,T5_M11,U1_M11,ZSPAN_M11,X0_M11,X2_M11,X1_M11
2023-12-14 11:00:00,SystemResetWarning,0833.9,5.00,000.00,018.8,017.8,000.0,027.1,020.0,23.6,-000.5,0030.14,0020.61,0019.64
2023-12-14 11:01:00,SystemResetWarning,0833.9,5.00,000.00,018.8,017.8,000.0,027.1,020.0,23.6,-000.5,0029.89,0020.68,0019.71
2023-12-14 11:02:00,SystemResetWarning,0833.9,5.00,000.00,018.8,017.8,000.0,027.1,020.0,23.6,-000.6,0028.97,0020.76,0019.77
2023-12-14 11:03:00,SystemResetWarning,0833.9,4.99,000.00,018.8,017.8,000.0,027.1,020.0,23.6,-000.7,0028.49,0020.80,0019.83
2023-12-14 11:04:00,SystemResetWarning,0833.9,5.00,000.00,018.8,017.8,000.0,027.1,020.0,23.6,-000.6,0027.91,0020.86,0019.86
2023-12-14 11:05:00,SystemResetWarning,0833.9,5.00,000.00,018.8,017.8,000.0,027.1,020.0,23.6,-000.5,0027.82,0020.83,0019.87
2023-12-14 11:06:00,SystemResetWarning,0834.0,5.00,000.00,018.8,017.8,000.0,027.1,020.0,23.6,-000.3,0027.19,0020.77,0019.86
2023-12-14 11:07:00,SystemResetWarning,0834.0,5.00,000.00,018.8,017.8,000.0,027.1,020.0,23.6,-000.2,0027.01,0020.75,0019.85
2023-12-14 11:08:00,SystemResetWarning,0833.9,5.00,000.00,018.8,017.8,000.0,027.1,020.0,23.5,0000.0,0026.98,0020.71,0019.79
2023-12-14 11:09:00,SystemResetWarning,0833.9,5.00,000.00,018.8,017.8,000.0,027.1,020.0,23.5,0000.0,0027.03,0020.69,0019.75
2023-12-14 11:10:00,SystemResetWarning,0834.0,5.00,000.00,018.8,017.8,000.0,027.1,020.0,23.5,0000.0,0026.85,0020.65,0019.71
2023-12-14 11:11:00,SystemResetWarning,0834.0,5.00,000.00,018.8,017.8,000.0,027.1,020.0,23.4,-000.2,0026.38,0020.62,0019.66
2023-12-14 11:12:00,SystemResetWarning,0833.9,5.00,000.00,018.8,017.8,000.0,027.1,020.0,23.4,-000.4,0026.03,0020.52,0019.57
2023-12-14 11:13:00,SystemResetWarning,0834.0,5.01,000.00,018.8,017.8,000.0,027.1,020.0,23.3,-000.5,0026.92,0020.42,0019.42
2023-12-14 11:14:00,SystemResetWarning,0833.9,5.00,000.00,018.8,017.8,000.0,027.1,020.0,23.3,-000.5,0026.99,0020.30,0019.29
2023-12-14 11:15:00,SystemResetWarning,0833.9,5.00,000.00,018.8,017.8,000.0,027.1,020.0,23.3,-000.4,0027.87,0020.15,0019.17
2023-12-14 11:16:00,SystemResetWarning,0834.0,5.00,000.00,018.8,017.8,000.0,027.1,020.0,23.2,-000.3,0027.82,0020.02,0019.01
2023-12-14 11:17:00,SystemResetWarning,0834.0,4.99,000.00,018.8,017.8,000.0,027.1,020.0,23.2,-000.2,0027.98,0019.95,0018.86
2023-12-14 11:18:00,SystemResetWarning,0834.0,4.99,000.00,018.8,017.8,000.0,027.1,020.0,23.2,-000.2,0027.87,0019.84,0018.73
2023-12-14 11:19:00,SystemResetWarning,0834.0,5.00,000.00,018.8,017.8,000.0,027.1,020.0,23.2,-000.4,0027.78,0019.75,0018.65
2023-12-14 11:20:00,SystemResetWarning,0834.0,5.01,000.00,018.8,017.8,000.0,027.1,020.0,23.2,-000.4,0027.55,0019.61,0018.55
2023-12-14 11:21:00,SystemResetWarning,0833.9,5.01,000.00,018.8,017.8,000.0,027.1,020.0,23.2,-000.3,0027.29,0019.54,0018.48
2023-12-14 11:22:00,SystemResetWarning,0833.9,5.01,000.00,018.8,017.8,000.0,027.1,020.0,23.2,0000.0,0027.15,0019.49,0018.41
2023-12-14 11:23:00,SystemResetWarning,0833.9,5.01,000.00,018.8,017.8,000.0,027.1,020.0,23.2,0000.0,0027.32,0019.46,0018.35
2023-12-14 11:24:00,SystemResetWarning,0833.8,5.00,000.00,018.8,017.8,000.0,027.1,020.0,23.2,0000.0,0026.33,0019.39,0018.32
2023-12-14 11:25:00,SystemResetWarning,0833.9,4.99,000.00,018.8,017.8,000.0,027.1,020.0,23.2,0000.0,0026.14,0019.37,0018.30
2023-12-14 11:26:00,SystemResetWarning,0833.9,5.00,000.00,018.8,017.9,000.0,027.1,020.0,23.2,-000.0,0025.13,0019.36,0018.26
2023-12-14 11:27:00,SystemResetWarning,0834.0,4.99,000.00,018.7,017.9,000.0,027.1,020.0,23.2,-000.2,0024.97,0019.32,0018.23
2023-12-14 11:28:00,SystemResetWarning,0834.0,5.01,000.00,018.7,017.9,000.0,027.1,020.0,23.2,-000.3,0024.60,0019.23,0018.21
2023-12-14 11:29:00,SystemResetWarning,0834.0,5.01,000.00,018.7,017.9,000.0,027.1,020.0,23.2,-000.3,0024.55,0019.22,0018.21
2023-12-14 11:30:00,SystemResetWarning,0834.0,5.00,000.00,018.7,017.8,000.0,027.1,020.0,23.3,-000.2,0024.51,0019.17,0018.18
2023-12-14 11:31:00,SystemResetWarning,0834.0,5.00,000.00,018.7,017.8,000.0,027.1,020.0,23.2,-000.1,0024.57,0019.14,0018.13
2023-12-14 11:32:00,SystemResetWarning,0834.0,4.99,000.00,018.7,017.8,000.0,027.1,020.0,23.2,0000.1,0024.88,0019.16,0018.12
2023-12-14 11:33:00,SystemResetWarning,0834.1,4.99,000.00,018.8,017.8,000.0,027.1,020.0,23.2,0000.2,0024.91,0019.15,0018.10
2023-12-14 11:34:00,SystemResetWarning,0834.1,4.99,000.00,018.8,017.8,000.0,027.1,020.0,23.2,0000.3,0024.67,0019.12,0018.07
2023-12-14 11:35:00,SystemResetWarning,0834.0,5.00,000.00,018.8,017.8,000.0,027.1,020.0,23.3,0000.5,0024.68,0019.14,0018.07
2023-12-14 11:36:00,SystemResetWarning,0834.0,5.01,000.00,018.8,017.8,000.0,027.1,020.0,23.3,0000.6,0024.93,0019.13,0018.07
2023-12-14 11:37:00,SystemResetWarning,0833.9,5.01,000.00,018.8,017.8,000.0,027.1,020.0,23.3,0000.6,0025.10,0019.16,0018.04
2023-12-14 11:38:00,SystemResetWarning,0833.9,5.01,000.00,018.8,017.8,000.0,027.1,020.0,23.3,0000.7,0025.26,0019.21,0018.02
2023-12-14 11:39:00,SystemResetWarning,0833.9,5.01,000.00,018.8,017.8,000.0,027.1,020.0,23.3,0000.8,0025.46,0019.21,0017.98
2023-12-14 11:40:00,SystemResetWarning,0833.9,5.00,000.00,018.7,017.8,000.0,027.1,020.0,23.3,0000.7,0026.19,0019.18,0017.95
2023-12-14 11:41:00,SystemResetWarning,0833.8,4.99,000.00,018.8,017.8,000.0,027.1,020.0,23.3,0000.9,0026.44,0019.21,0017.93
2023-12-14 11:42:00,SystemResetWarning,0833.7,4.99,000.00,018.8,017.8,000.0,027.1,020.0,23.3,0000.7,0026.51,0019.27,0017.95
2023-12-14 11:43:00,SystemResetWarning,0833.8,5.00,000.00,018.7,017.8,000.0,027.1,020.0,23.3,0000.5,0026.48,0019.27,0017.94
2023-12-14 11:44:00,SystemResetWarning,0833.8,5.00,000.00,018.7,017.8,000.0,027.1,020.0,23.3,0000.4,0026.67,0019.30,0017.93
2023-12-14 11:45:00,SystemResetWarning,0833.7,5.00,000.00,018.7,017.8,000.0,027.1,020.0,23.3,0000.4,0027.12,0019.33,0017.95
2023-12-14 11:46:00,SystemResetWarning,0833.8,5.00,000.00,018.7,017.8,000.0,027.1,020.0,23.3,0000.5,0028.05,0019.36,0017.95
2023-12-14 11:47:00,SystemResetWarning,0833.8,5.00,000.00,018.8,017.8,000.0,027.1,020.0,23.3,0000.4,0028.27,0019.40,0017.96
2023-12-14 11:48:00,SystemResetWarning,0833.8,5.00,000.00,018.8,017.8,000.0,027.1,020.0,23.3,0000.7,0028.69,0019.40,0017.98
2023-12-14 11:49:00,SystemResetWarning,0833.8,5.00,000.00,018.8,017.8,000.0,027.1,020.0,23.3,0000.7,0028.78,0019.41,0018.03
2023-12-14 11:50:00,SystemResetWarning,0833.9,4.99,000.00,018.8,017.8,000.0,027.1,020.0,23.3,0000.7,0029.51,0019.47,0018.09
2023-12-14 11:51:00,SystemResetWarning,0833.9,4.98,000.00,018.8,017.8,000.0,027.1,020.0,23.3,0000.6,0029.17,0019.50,0018.15
2023-12-14 11:52:00,SystemResetWarning,0834.0,5.01,000.00,018.8,017.8,000.0,027.1,020.0,23.3,0000.4,0029.51,0019.53,0018.20
2023-12-14 11:53:00,SystemResetWarning,0833.9,5.01,000.00,018.8,017.8,000.0,027.1,020.0,23.3,0000.3,0029.72,0019.55,0018.25
2023-12-14 11:54:00,SystemResetWarning,0834.0,5.01,000.00,018.7,017.7,000.0,027.1,020.0,23.3,0000.2,0029.57,0019.56,0018.26
2023-12-14 11:55:00,SystemResetWarning,0834.0,5.00,000.00,018.7,017.8,000.0,027.1,020.0,23.3,0000.3,0029.46,0019.54,0018.29
2023-12-14 11:56:00,SystemResetWarning,0833.9,5.00,000.00,018.8,017.8,000.0,027.1,020.0,23.3,0000.2,0029.43,0019.53,0018.31
2023-12-14 11:57:00,SystemResetWarning,0834.0,4.99,000.00,018.8,017.8,000.0,027.1,020.0,23.3,-000.0,0028.59,0019.50,0018.32
2023-12-14 11:58:00,SystemResetWarning,0833.9,5.00,000.00,018.8,017.8,000.0,027.1,020.0,23.3,-000.1,0028.58,0019.45,0018.31
2023-12-14 11:59:00,SystemResetWarning,0833.9,5.01,000.00,018.8,017.8,000.0,027.1,020.0,23.3,-000.3,0028.77,0019.41,0018.32
